• In Uzbekistan
  • List of Countries
  • For 7 days
  • Water Temperature
  • Satellite Maps
  • Weather Map
  • Weather Widgets
  • user-avatar
    Login

    Hourly Weather Samos

    Today, 16 October, Tuesday

    Time Temperature Precipitation Wind Pressure Humidity
    00:00 +16°C° 0 mm 2 mps 722 mmHg 83%
    01:00 +16°C° 0 mm 2 mps 722 mmHg 84%
    02:00 +16°C° 0 mm 3 mps 722 mmHg 84%
    03:00 +14°C° 0 mm 3 mps 722 mmHg 85%
    04:00 +14°C° 0 mm 3 mps 722 mmHg 86%
    05:00 +14°C° 0 mm 3 mps 722 mmHg 86%
    06:00 +16°C° 0 mm 3 mps 722 mmHg 81%
    07:00 +17°C° 0 mm 3 mps 722 mmHg 76%
    08:00 +17°C° 0 mm 3 mps 723 mmHg 71%
    09:00 +20°C° 0 mm 3 mps 723 mmHg 62%
    10:00 +22°C° 0 mm 3 mps 723 mmHg 53%
    11:00 +25°C° 0 mm 3 mps 723 mmHg 44%
    12:00 +25°C° 0 mm 4 mps 723 mmHg 42%
    13:00 +26°C° 0 mm 4 mps 723 mmHg 40%
    14:00 +27°C° 0 mm 5 mps 723 mmHg 38%
    15:00 +26°C° 0 mm 5 mps 722 mmHg 43%
    16:00 +25°C° 0 mm 5 mps 722 mmHg 48%
    17:00 +22°C° 0 mm 5 mps 722 mmHg 52%
    18:00 +21°C° 0 mm 5 mps 722 mmHg 59%
    19:00 +20°C° 0 mm 5 mps 722 mmHg 66%
    20:00 +17°C° 0 mm 5 mps 722 mmHg 72%
    21:00 +17°C° 0 mm 5 mps 722 mmHg 74%
    22:00 +17°C° 0 mm 4 mps 722 mmHg 75%
    23:00 +17°C° 0 mm 4 mps 722 mmHg 77%

    Tomorrow, 17 October, Wednesday

    Time Temperature Precipitation Wind Pressure Humidity
    00:00 +17°C° 0 mm 4 mps 722 mmHg 78%
    01:00 +15°C° 0 mm 4 mps 722 mmHg 79%
    02:00 +15°C° 0 mm 4 mps 721 mmHg 81%
    03:00 +15°C° 0 mm 4 mps 721 mmHg 82%
    04:00 +14°C° 0 mm 4 mps 721 mmHg 83%
    05:00 +14°C° 0 mm 4 mps 720 mmHg 84%
    06:00 +15°C° 0 mm 4 mps 721 mmHg 80%
    07:00 +17°C° 0 mm 4 mps 721 mmHg 76%
    08:00 +18°C° 0 mm 4 mps 721 mmHg 71%
    09:00 +20°C° 0 mm 3 mps 721 mmHg 63%
    10:00 +22°C° 0 mm 3 mps 721 mmHg 55%
    11:00 +25°C° 0 mm 3 mps 721 mmHg 47%
    12:00 +26°C° 0 mm 3 mps 721 mmHg 45%
    13:00 +27°C° 0 mm 4 mps 720 mmHg 43%
    14:00 +27°C° 0 mm 4 mps 720 mmHg 41%
    15:00 +26°C° 0 mm 4 mps 720 mmHg 45%
    16:00 +25°C° 0 mm 4 mps 720 mmHg 49%
    17:00 +23°C° 0 mm 4 mps 720 mmHg 53%
    18:00 +21°C° 0 mm 4 mps 720 mmHg 59%
    19:00 +20°C° 0 mm 4 mps 720 mmHg 66%
    20:00 +18°C° 0 mm 3 mps 720 mmHg 72%
    21:00 +18°C° 0 mm 3 mps 720 mmHg 74%
    22:00 +17°C° 0 mm 3 mps 720 mmHg 77%
    23:00 +17°C° 0 mm 2 mps 720 mmHg 79%

    Day after tomorrow, 18 October, Thursday

    Time Temperature Precipitation Wind Pressure Humidity
    00:00 +17°C° 0 mm 2 mps 720 mmHg 80%
    01:00 +16°C° 0 mm 2 mps 720 mmHg 81%
    02:00 +16°C° 0 mm 2 mps 720 mmHg 82%
    03:00 +16°C° 0 mm 2 mps 720 mmHg 82%
    04:00 +16°C° 0 mm 2 mps 720 mmHg 82%
    05:00 +16°C° 0 mm 2 mps 719 mmHg 83%
    06:00 +17°C° 0 mm 2 mps 720 mmHg 78%
    07:00 +18°C° 0 mm 2 mps 720 mmHg 73%
    08:00 +19°C° 0 mm 2 mps 720 mmHg 68%
    09:00 +21°C° 0 mm 2 mps 720 mmHg 60%
    10:00 +24°C° 0 mm 2 mps 720 mmHg 52%
    11:00 +26°C° 0 mm 1 mps 720 mmHg 45%
    12:00 +26°C° 0 mm 2 mps 720 mmHg 44%
    13:00 +27°C° 0 mm 2 mps 720 mmHg 43%
    14:00 +27°C° 0 mm 3 mps 720 mmHg 42%
    15:00 +26°C° 0 mm 3 mps 720 mmHg 47%
    16:00 +24°C° 0 mm 3 mps 720 mmHg 51%
    17:00 +22°C° 0 mm 3 mps 720 mmHg 55%
    18:00 +21°C° 0 mm 3 mps 720 mmHg 61%
    19:00 +20°C° 0 mm 2 mps 720 mmHg 67%
    20:00 +18°C° 0 mm 2 mps 720 mmHg 73%
    21:00 +18°C° 0 mm 2 mps 721 mmHg 74%
    22:00 +18°C° 0 mm 2 mps 721 mmHg 75%
    23:00 +17°C° 0 mm 2 mps 721 mmHg 76%

    19 October, Friday

    Time Temperature Precipitation Wind Pressure Humidity
    00:00 +17°C° 0 mm 2 mps 721 mmHg 76%
    01:00 +17°C° 0 mm 2 mps 721 mmHg 76%
    02:00 +17°C° 0 mm 2 mps 721 mmHg 77%
    03:00 +16°C° 0 mm 2 mps 721 mmHg 77%
    04:00 +16°C° 0 mm 2 mps 721 mmHg 78%
    05:00 +16°C° 0 mm 2 mps 720 mmHg 78%
    06:00 +17°C° 0 mm 2 mps 721 mmHg 74%
    07:00 +18°C° 0 mm 2 mps 721 mmHg 70%
    08:00 +19°C° 0 mm 2 mps 721 mmHg 65%
    09:00 +21°C° 0 mm 2 mps 721 mmHg 58%
    10:00 +24°C° 0 mm 2 mps 721 mmHg 50%
    11:00 +26°C° 0 mm 1 mps 721 mmHg 43%
    12:00 +27°C° 0 mm 2 mps 721 mmHg 42%
    13:00 +27°C° 0 mm 3 mps 721 mmHg 40%
    14:00 +27°C° 0 mm 3 mps 721 mmHg 39%
    15:00 +26°C° 0 mm 3 mps 721 mmHg 44%
    16:00 +25°C° 0 mm 4 mps 721 mmHg 49%
    17:00 +23°C° 0 mm 4 mps 720 mmHg 53%
    18:00 +21°C° 0 mm 4 mps 721 mmHg 58%
    19:00 +20°C° 0 mm 3 mps 721 mmHg 62%
    20:00 +19°C° 0 mm 3 mps 721 mmHg 67%
    21:00 +18°C° 0 mm 3 mps 721 mmHg 67%
    22:00 +18°C° 0 mm 3 mps 721 mmHg 68%
    23:00 +17°C° 0 mm 3 mps 721 mmHg 68%

    20 October, Saturday

    Time Temperature Precipitation Wind Pressure Humidity
    00:00 +17°C° 0 mm 3 mps 721 mmHg 68%
    01:00 +17°C° 0 mm 3 mps 721 mmHg 69%
    02:00 +16°C° 0 mm 3 mps 721 mmHg 69%
    03:00 +16°C° 0 mm 3 mps 721 mmHg 70%
    04:00 +16°C° 0 mm 3 mps 721 mmHg 70%
    05:00 +16°C° 0 mm 3 mps 720 mmHg 71%
    06:00 +17°C° 0 mm 3 mps 721 mmHg 67%
    07:00 +17°C° 0 mm 3 mps 721 mmHg 64%
    08:00 +18°C° 0 mm 3 mps 721 mmHg 60%
    09:00 +20°C° 0 mm 3 mps 721 mmHg 53%
    10:00 +24°C° 0 mm 3 mps 721 mmHg 46%
    11:00 +26°C° 0 mm 2 mps 721 mmHg 39%
    12:00 +26°C° 0 mm 3 mps 721 mmHg 37%
    13:00 +27°C° 0 mm 3 mps 721 mmHg 36%
    14:00 +27°C° 0 mm 4 mps 720 mmHg 34%
    15:00 +26°C° 0 mm 4 mps 720 mmHg 38%
    16:00 +25°C° 0 mm 4 mps 720 mmHg 41%
    17:00 +22°C° 0 mm 4 mps 720 mmHg 44%
    18:00 +21°C° 0 mm 4 mps 720 mmHg 49%
    19:00 +20°C° 0 mm 4 mps 720 mmHg 53%
    20:00 +18°C° 0 mm 4 mps 720 mmHg 57%
    21:00 +18°C° 0 mm 4 mps 720 mmHg 58%
    22:00 +17°C° 0 mm 4 mps 720 mmHg 59%
    23:00 +17°C° 0 mm 4 mps 720 mmHg 61%

    21 October, Sunday

    Time Temperature Precipitation Wind Pressure Humidity
    00:00 +15°C° 0 mm 4 mps 720 mmHg 62%
    01:00 +15°C° 0 mm 4 mps 720 mmHg 63%
    02:00 +14°C° 0 mm 4 mps 720 mmHg 65%
    03:00 +14°C° 0 mm 4 mps 720 mmHg 66%
    04:00 +13°C° 0 mm 4 mps 720 mmHg 68%
    05:00 +13°C° 0 mm 4 mps 720 mmHg 69%
    06:00 +14°C° 0 mm 4 mps 720 mmHg 66%
    07:00 +15°C° 0 mm 4 mps 720 mmHg 63%
    08:00 +15°C° 0 mm 4 mps 720 mmHg 60%
    09:00 +19°C° 0 mm 4 mps 720 mmHg 53%
    10:00 +21°C° 0 mm 4 mps 720 mmHg 46%
    11:00 +23°C° 0 mm 4 mps 720 mmHg 39%
    12:00 +25°C° 0 mm 4 mps 720 mmHg 36%
    13:00 +25°C° 0 mm 4 mps 720 mmHg 34%
    14:00 +26°C° 0 mm 4 mps 719 mmHg 32%
    15:00 +25°C° 0 mm 4 mps 719 mmHg 35%
    16:00 +23°C° 0 mm 4 mps 719 mmHg 39%
    17:00 +21°C° 0 mm 4 mps 719 mmHg 43%
    18:00 +20°C° 0 mm 4 mps 719 mmHg 48%
    19:00 +18°C° 0 mm 4 mps 719 mmHg 53%
    20:00 +17°C° 0 mm 3 mps 719 mmHg 58%
    21:00 +16°C° 0 mm 3 mps 719 mmHg 59%
    22:00 +16°C° 0 mm 3 mps 718 mmHg 61%
    23:00 +16°C° 0 mm 2 mps 718 mmHg 63%
    Show more